TimeCST,TemperatureF,Dew PointF,Humidity,Sea Level PressureIn,VisibilityMPH,Wind Direction,Wind SpeedMPH,Gust SpeedMPH,PrecipitationIn,Events,Conditions,WindDirDegrees,DateUTC
12:58 AM,32.7,21.6,64,29.89,10.0,East,5.8,-,N/A,,Clear,100,2014-01-20 06:58:00
1:58 AM,30.7,20.7,66,29.85,10.0,ENE,5.8,-,N/A,,Clear,60,2014-01-20 07:58:00
2:58 AM,29.3,21.2,72,29.85,10.0,East,6.9,-,N/A,,Clear,90,2014-01-20 08:58:00
3:58 AM,30.0,20.8,69,29.84,10.0,ESE,4.6,-,N/A,,Clear,110,2014-01-20 09:58:00
4:58 AM,27.1,19.0,72,29.84,10.0,East,4.6,-,N/A,,Clear,100,2014-01-20 10:58:00
5:58 AM,25.3,19.9,80,29.85,10.0,ENE,5.8,-,N/A,,Clear,60,2014-01-20 11:58:00
6:58 AM,25.3,19.0,77,29.88,10.0,North,5.8,-,N/A,,Clear,10,2014-01-20 12:58:00
7:58 AM,27.1,20.5,76,29.91,10.0,NNW,3.5,-,N/A,,Clear,330,2014-01-20 13:58:00
8:58 AM,36.7,24.1,60,29.92,10.0,WNW,6.9,-,N/A,,Clear,300,2014-01-20 14:58:00
9:58 AM,47.7,24.3,40,29.94,10.0,Variable,2.3,-,N/A,,Clear,0,2014-01-20 15:58:00
10:58 AM,61.9,24.3,24,29.95,10.0,NNW,18.4,-,N/A,,Clear,340,2014-01-20 16:58:00
11:58 AM,68.0,23.4,19,29.95,10.0,North,17.3,25.3,N/A,,Clear,350,2014-01-20 17:58:00
12:58 PM,71.4,21.7,15,29.95,10.0,North,23.0,28.8,N/A,,Clear,350,2014-01-20 18:58:00
1:58 PM,70.2,21.2,16,29.95,10.0,NNW,24.2,32.2,N/A,,Clear,340,2014-01-20 19:58:00
2:58 PM,68.4,21.7,17,29.98,10.0,North,25.3,34.5,N/A,,Clear,350,2014-01-20 20:58:00
3:58 PM,63.5,23.2,21,30.06,10.0,North,25.3,35.7,N/A,,Clear,360,2014-01-20 21:58:00
4:58 PM,61.5,21.6,22,30.11,10.0,North,21.9,33.4,N/A,,Clear,360,2014-01-20 22:58:00
5:58 PM,57.7,20.1,23,30.17,10.0,North,12.7,23.0,N/A,,Clear,360,2014-01-20 23:58:00
6:58 PM,51.4,19.9,29,30.23,10.0,North,13.8,20.7,N/A,,Clear,360,2014-01-21 00:58:00
7:58 PM,53.8,20.7,27,30.27,10.0,North,12.7,-,N/A,,Clear,360,2014-01-21 01:58:00
8:58 PM,46.9,20.1,35,30.30,10.0,NNW,8.1,-,N/A,,Clear,340,2014-01-21 02:58:00
9:58 PM,48.0,18.0,30,30.32,10.0,North,16.1,23.0,N/A,,Clear,350,2014-01-21 03:58:00
10:58 PM,45.7,16.9,32,30.33,10.0,NNW,12.7,-,N/A,,Clear,340,2014-01-21 04:58:00
11:58 PM,44.4,16.9,33,30.34,10.0,NNW,13.8,-,N/A,,Clear,330,2014-01-21 05:58:00